Regional Weather Roundup
Issued by NWS Northern Indiana

Home | Current Version | Previous Version | Graphics & Text | Print | Product List | Glossary On
Versions: 1 2 3 4 5 6 7 8 9 10 11 12 13 14 15 16 17 18 19 20 21 22 23 24 25 26 27 28 29 30 31 32 33 34 35 36 37 38 39 40 41 42 43 44 45 46 47 48 49 50
000
ASUS43 KIWX 030800
RWRIWX

KIWX WEATHER ROUNDUP
NATIONAL WEATHER SERVICE NORTHERN INDIANA
400 AM EDT FRI JUL 03 2015

NOTE: "FAIR" INDICATES FEW OR NO CLOUDS BELOW 12,000 FEET WITH NO
SIGNIFICANT WEATHER AND/OR OBSTRUCTIONS TO VISIBILITY.

* THESE STATIONS ARE NOT UNDER NWS QUALITY CONTROL. THEY ALSO MAY NOT
  REPORT WEATHER SUCH AS PRECIPITATION OR FOG.

INZ001>027-030900-
NORTHERN INDIANA

CITY           SKY/WX    TMP DP  RH WIND       PRES   REMARKS
SOUTH BEND     PTCLDY    59  53  80 CALM      29.98F
GOSHEN         PTCLDY    58  54  86 E3        29.98S
ANGOLA*          N/A     55  54  94 CALM      29.99F
FORT WAYNE     CLOUDY    59  54  83 E5        29.98S
PERU/GRISSOM   CLOUDY    62  56  80 NE6       29.94S

$$
INZ028>050-030900-
CENTRAL INDIANA

CITY           SKY/WX    TMP DP  RH WIND       PRES   REMARKS
LAFAYETTE      CLOUDY    63  57  81 E8        29.92F
KOKOMO*        CLOUDY    61  55  82 E8        29.93F
MUNCIE*        MOCLDY    62  55  77 E7        29.93F
INDIANAPOLIS   LGT RAIN  67  59  75 E13       29.88F

$$
MIZ043>046-050>051-056>058-064>065-071>073-077>080-030900-
SOUTHWEST LOWER MICHIGAN

CITY           SKY/WX    TMP DP  RH WIND       PRES   REMARKS
BATTLE CREEK   PTCLDY    58  49  72 E3        30.00F
BENTON HARBOR  PTCLDY    54  51  90 E3        29.98S
COLDWATER*     PTCLDY    54  53  95 CALM      29.99F
HILLSDALE*     PTCLDY    54  54 100 CALM      30.00F FOG
HOLLAND        PTCLDY    54  49  83 CALM      30.00F
GRAND RAPIDS   CLEAR     55  47  74 E3        30.00F
KALAMAZOO      PTCLDY    56  50  80 CALM      30.00S
STURGIS*       PTCLDY    55  54  94 E5        29.98F
THREE RIVERS*  FAIR      56  52  85 CALM      30.00S

$$
OHZ001>008-015>018-024>025-030900-
NORTHWEST OHIO

CITY           SKY/WX    TMP DP  RH WIND       PRES   REMARKS
DEFIANCE       PTCLDY    59  55  87 NE5       29.98F
FINDLAY        CLEAR     60  55  83 E8        29.96F
TOLEDO EXPRESS PTCLDY    57  54  89 N3        29.98F
TOLEDO METCALF PTCLDY    59  54  83 NE3       29.99F
LIMA           CLEAR     58  53  84 E6        29.96F

$$
AND FOR LAKE MICHIGAN COASTAL AND OPEN LAKE BUOY OBSERVATIONS

STATION/POSITION TEMP    WIND        PRES    VSBY  WAVE
                 AIR SEA DIR/SP/G                  HT/PER
                 (F)     (DEG/KT/KT) (MB)    (MI)  (FT/S)
CALUMET HARBOR    61     360/  4/  5   N/A
MICHIGAN CITY     57      40/  7/  8   N/A
BURNS HARBOR      61      70/  9/ 10 1015.6F
SAINT JOSEPH      60     360/  2/  4   N/A
4 MI NW BRIDGMAN  61 61                N/A           2/ 4
MICHIGAN CITY     60 62   90/  8/ 10   N/A           2/ 5

$$
&&



USA.gov is the U.S. government's official web portal to all federal, state and local government web resources and services.